GLOBALSTAR M068 [-]

Last updated on Fri Dec 29 2023 00:02:56 GMT+0000 (Coordinated Universal Time)

1 32266U 07048D 23362.44016997 -.00000085 00000+0 10540-3 0 9990 2 32266 51.9870 138.3705 0001546 78.5462 22.1449 12.62775535750036
UTC large
Height (km)
Speed (km/s)
/
Latitude / Longitude
Inclination (degrees)
Orbital Period (minutes)
Azimuth
Elevation
Range (km)
Doppler Factor

Next 0 passes for location: London (51.5072 / 0.1276)

Sorry there are no passes over London.